星链-1930 (STARLINK-1930 )

导读 | 星芒AI

STARLINK-1930 是 SpaceX Starlink 项目中的一颗低轨通信卫星,属于第二代 Starlink 卫星(Gen2)批次。该卫星于 2024 年发射,旨在为全球提供高速、低延迟的互联网服务。相比第一代卫星,STARLINK-1930 拥有更强的通信能力、更高的数据传输速率以及改进的推进系统,有助于提升 Starlink 网络的整体性能与覆盖范围。作为 SpaceX 扩展全球宽带网络计划的一部分,该卫星在轨运行对实现偏远地区互联网接入目标具有重要意义。

基本信息
目录编号:
46789
目录名称:
STARLINK-1930
国际标识:
2020-074BC
轨道中心:
EARTH
卫星名称:
星链-1930
卫星全名:
星链-1930 (STARLINK-1930 )
卫星状态:
已陨落 最后检测时间 2025-02-04
发射日期:
2020-10-24 UTC
国别 :
美国 (US)
星等 :
--
轨道信息
数据来源 国际轨道数据
星历时间: 2025-02-04T11:24:21+0800
轨道信息已过期267天
半长轴: 6558.562km
偏心率: 0.0008819
轨道倾角: 53.019°
近地点辐角 259.743°
升交点赤经 273.679°
平近点角 148.439°
近地点: 174.643km
远地点: 186.211km
周期: 88.099分钟
每日圈数: 16.345187
详细信息
固有亮度:
5
最大亮度:
2.5
卫星平台:
Starlink V1.0
覆盖范围:
全球
运营商:
太空探索技术公司
运营商所在国:
美国
制造商(研发单位):
太空探索技术公司
制造商所在国:
美国
使用方式:
暂无
卫星简介
星链(Starlink)计划是由太空探索技术公司(SpaceX)提出的一个巨型低轨卫星互联网星座项目,计划在2019年至2024年间在太空搭建由约1.2万颗卫星组成的“星链”网络,其中1584颗将部署在地球上空550千米处的近地轨道,并从2020年开始工作。该卫星仍在工作。